#timestamp,LO_Frequency,Hit,StdDev 
1598461215.9,286047001.2,P
1598461235.7,286047001.1,N
1598461255.5,286046999.4,N
1598461275.4,286046999.1,N
1598461295.2,286046996.6,Y
1598461315.0,286046998.9,P
1598461315.9,286046998.9,N
1598461335.8,286046998.8,N
1598461355.6,286046996.5,Y
1598461375.5,286046996.8,P
1598461395.3,286046997.0,N
1598461415.1,286046998.1,N
1598461435.9,286046999.6,N
1598461455.7,286046999.6,N
1598461475.5,286046998.2,N
1598461495.4,286046998.3,N
1598461515.2,286046999.1,N
1598461535.1,286046999.5,N
1598461536.0,286046999.5,N
1598461555.8,286046996.5,Y
1598461575.6,286046998.2,P
1598461595.5,286046998.7,P
1598461615.3,286046999.1,P
1598461635.1,286046999.4,N
1598461655.9,286046998.2,Y
1598461675.7,286047000.3,P
1598461695.6,286047002.8,P
1598461715.4,286047002.1,N
1598461735.2,286047001.3,N
1598461755.1,286047001.9,N
1598461756.0,286047001.9,N
1598461775.8,286046999.9,N
1598461795.7,286046998.3,N
1598461815.5,286046998.2,N
1598461835.3,286046999.9,N
1598461855.2,286047003.9,N
1598461875.9,286047003.1,N
1598461895.7,286047001.7,N
1598461915.6,286047003.8,N
1598461935.4,286047003.4,N
1598461955.2,286047001.7,N
1598461975.1,286047002.2,N
1598461976.0,286047002.2,N
1598461995.8,286046999.8,N
1598462015.7,286046999.8,N
1598462035.5,286047002.2,N
1598462055.3,286047000.6,N
1598462075.2,286046999.9,N
1598462095.0,286047000.7,N
1598462095.9,286047000.7,N
1598462115.8,286047002.3,N
1598462135.6,286047000.4,N
1598462155.4,286046998.2,N
1598462175.3,286046999.9,N
1598462195.1,286047000.2,N
1598462196.0,286047000.2,N
1598462215.8,286047000.2,N
1598462235.7,286047000.0,N
1598462255.5,286046999.7,N
1598462275.4,286047000.3,N
1598462295.2,286046999.7,N
1598462315.0,286047001.8,N
1598462315.9,286047001.8,N
1598462335.8,286047000.6,N
1598462355.6,286046998.5,N
1598462375.4,286047000.3,N
1598462395.3,286046999.7,N
1598462415.1,286047000.3,N
1598462435.9,286047000.0,N
1598462455.7,286047000.4,N
1598462475.5,286047002.0,N
1598462495.4,286047001.8,N
1598462515.2,286047005.8,Y
1598462535.0,286047005.3,P
1598462535.9,286047005.3,N
1598462555.8,286047005.9,N
1598462575.6,286047003.3,N
1598462595.5,286047003.5,N
1598462615.3,286047003.5,N
1598462635.1,286047003.4,N
1598462655.9,286047004.1,N
1598462675.7,286047004.3,N
1598462695.5,286047001.7,N
1598462715.4,286047002.1,N
1598462735.2,286047001.7,N
1598462755.1,286047001.9,N
1598462756.0,286047001.9,N
1598462775.8,286047002.4,N
1598462795.6,286047002.6,N
1598462815.5,286047001.4,N
1598462835.3,286047003.7,N
1598462855.1,286047002.0,N
1598462875.9,286047002.5,N
1598462895.7,286047004.0,N
1598462915.6,286047003.8,N
1598462935.4,286047003.7,N
1598462955.2,286047001.7,N
1598462975.1,286046999.8,N
1598462976.0,286046999.8,N
1598462995.8,286047000.2,N
1598463015.6,286047001.3,N
1598463035.5,286047002.5,N
1598463055.3,286047001.3,N
1598463075.2,286047001.7,N
1598463095.9,286047003.7,N
1598463115.7,286047003.0,N
1598463135.6,286047004.1,Y
1598463155.4,286047000.1,P
1598463175.2,286047000.0,N
1598463195.1,286047000.1,N
1598463196.0,286047000.1,N
1598463215.8,286046998.6,N
1598463235.7,286046998.5,N
1598463255.5,286047002.8,N
1598463275.3,286047001.8,N
1598463295.2,286047002.5,N
1598463315.0,286047002.1,N
1598463315.9,286047002.1,N
1598463335.7,286046999.7,N
1598463355.6,286047002.1,N
1598463375.4,286046999.9,N
1598463395.3,286047002.6,N
1598463415.1,286046999.8,N
1598463416.0,286046999.8,N
1598463435.8,286047002.6,N
1598463455.7,286047002.6,N
1598463475.5,286047002.4,N
1598463495.3,286046999.8,N
1598463515.2,286047002.6,N
1598463535.0,286047002.1,N
1598463535.9,286047002.1,N
1598463555.8,286047001.8,N
1598463575.6,286047004.1,N
1598463595.4,286047001.4,N
1598463615.3,286047001.9,N
1598463635.1,286047001.6,N
1598463655.8,286047000.1,N
1598463675.7,286047001.7,N
1598463695.5,286047003.7,N
1598463715.4,286047002.2,N
1598463735.2,286047002.0,N
1598463755.0,286047001.7,N
1598463755.9,286047001.7,N
1598463775.8,286047002.0,N
1598463795.6,286047004.1,Y
1598463815.5,286047002.6,P
1598463835.3,286047001.9,P
1598463855.1,286047002.3,P
1598463875.9,286047002.7,Y
1598463895.7,286046998.5,P
1598463915.6,286047000.5,N
1598463935.4,286046999.1,N
1598463955.2,286046999.2,N
1598463975.1,286046999.0,N
1598463976.0,286046999.0,N
1598463995.8,286046998.7,N
1598464015.6,286046998.7,N
1598464035.5,286047000.3,N
1598464055.3,286047002.8,N
1598464075.2,286046999.8,N
1598464095.9,286046998.3,N
1598464115.7,286047001.0,N
1598464135.6,286047001.0,N
1598464155.4,286047001.1,N
1598464175.2,286047000.0,N
1598464195.1,286047000.9,N
1598464196.0,286047000.9,N
1598464215.8,286047002.4,N
1598464235.7,286047004.4,Y
1598464255.5,286047003.4,P
1598464275.3,286047003.7,N
1598464295.2,286047004.4,N
1598464315.0,286047002.0,N
1598464315.9,286047002.0,N
1598464335.7,286047002.3,N
1598464355.6,286047000.3,N
1598464375.4,286047000.4,N
1598464395.3,286047002.6,N
1598464415.1,286046998.5,N
1598464416.0,286046998.5,N
1598464435.8,286046998.5,N
1598464455.7,286047001.0,N
1598464475.5,286047002.7,N
1598464495.4,286046999.9,N
1598464515.2,286047001.2,N
1598464535.0,286047000.5,N
1598464535.9,286047000.5,N
1598464555.8,286047000.2,N
1598464575.6,286046999.9,N
1598464595.4,286047002.5,N
1598464615.3,286047002.4,N
1598464635.1,286047002.5,N
1598464655.9,286047002.8,N
1598464675.7,286047000.7,N
1598464695.5,286047000.6,N
1598464715.4,286047000.3,N
1598464735.2,286046999.9,N
1598464755.1,286047000.0,N
1598464756.0,286047000.0,N
1598464775.8,286047000.5,N
1598464795.6,286047001.5,N
